Akron, CO

3:56 PM MST on January 17, 2018 (GMT -0700)
Akron-Washington County

Weather History for KAKO - May, 2014

Change the Weather History Date:

Friday, May 30, 2014

  Actual Average Record
Temperature  
Mean Temperature 70 °F 62 °F  
Max Temperature 81 °F 75 °F 94 °F (2002)
Min Temperature 58 °F 48 °F 38 °F (1947)
Degree Days  
Heating Degree Days 0    
Month to date heating degree days 266  
Cooling Degree Days 5    
Month to date cooling degree days 23  
Growing Degree Days 20 (Base 50)    
Moisture  
Dew Point 52 °F    
Average Humidity 66    
Maximum Humidity 93    
Minimum Humidity 39    
Precipitation  
Precipitation 0.16 in 0.11 in 1.50 in (1982)
Month to date precipitation 3.08 2.82  
Year to date precipitation 4.70 6.08  
Sea Level Pressure  
Sea Level Pressure 29.96 in    
Wind  
Wind Speed 11 mph (East)    
Max Wind Speed 32 mph    
Max Gust Speed 41 mph    
Visibility 9 miles    
Events Rain , Thunderstorm    
T = Trace of Precipitation, MM = Missing Value Source: NWS Daily Summary

Daily Weather History Graph

Daily Weather History Graph

Search for Another Location

Airport or City:

Trip Planner

Search our weather history database for the weather conditions in past years. The results will help you decide how hot, cold, wet, or windy it might be!

Date:

Astronomy

May. 30, 2014 Rise Set
Actual Time 5:26 AM MDT 8:14 PM MDT
Civil Twilight 4:54 AM MDT 8:46 PM MDT
Nautical Twilight 4:14 AM MDT 9:27 PM MDT
Astronomical Twilight 3:27 AM MDT 10:13 PM MDT
Moon 7:12 AM MDT (5/30) 9:53 PM MDT (5/30)
Length of Visible Light 15h 52m
Length of Day
14h 48m
Waxing Crescent, 4% of the Moon is Illuminated
May 30
Waxing Crescent
Jun 5
First Quarter
Jun 12
Full
Jun 19
Last Quarter
Jun 27
New

Hourly Weather History & Observations

Time (MDT) Temp. Heat Index Dew Point Humidity Pressure Visibility Wind Dir Wind Speed Gust Speed Precip Events Conditions
12:53 AM 64.9 °F - 46.9 °F 52% 29.85 in 10.0 mi South 9.2 mph - N/A   Clear
1:53 AM 66.9 °F - 45.0 °F 45% 29.85 in 10.0 mi South 12.7 mph - N/A   Clear
2:53 AM 64.0 °F - 46.0 °F 52% 29.86 in 10.0 mi South 12.7 mph - N/A   Clear
3:53 AM 62.1 °F - 46.9 °F 58% 29.86 in 10.0 mi South 8.1 mph - N/A   Clear
4:53 AM 62.1 °F - 46.9 °F 58% 29.86 in 10.0 mi South 6.9 mph - N/A   Scattered Clouds
5:53 AM 61.0 °F - 48.0 °F 62% 29.88 in 10.0 mi South 6.9 mph - N/A   Mostly Cloudy
6:53 AM 62.1 °F - 51.1 °F 67% 29.90 in 10.0 mi ESE 4.6 mph - N/A   Clear
7:53 AM 66.9 °F - 51.1 °F 57% 29.91 in 10.0 mi SSW 4.6 mph - N/A   Clear
8:53 AM 70.0 °F - 48.9 °F 47% 29.92 in 10.0 mi West 10.4 mph - N/A   Partly Cloudy
9:53 AM 73.0 °F - 51.1 °F 46% 29.91 in 10.0 mi NW 9.2 mph - N/A   Clear
10:53 AM 73.9 °F - 51.1 °F 45% 29.94 in 10.0 mi NNE 8.1 mph - N/A   Clear
12:53 PM 80.1 °F 80.0 °F 54.0 °F 40% 29.90 in 10.0 mi ESE 12.7 mph 17.3 mph N/A   Clear
1:53 PM 78.1 °F - 54.0 °F 43% 29.88 in 10.0 mi East 8.1 mph - N/A   Partly Cloudy
2:11 PM 75.9 °F - 46.9 °F 36% 30.04 in 10.0 mi SE 13.8 mph 19.6 mph N/A Thunderstorm Scattered Clouds
2:21 PM 75.0 °F - 45.0 °F 34% 30.05 in 10.0 mi SE 10.4 mph - N/A Thunderstorm Thunderstorm
2:37 PM 73.9 °F - 46.9 °F 38% 30.06 in 10.0 mi SSE 29.9 mph 38.0 mph N/A Thunderstorm Mostly Cloudy
3:04 PM 66.9 °F - 52.0 °F 59% 30.07 in 10.0 mi South 21.9 mph 26.5 mph N/A   Mostly Cloudy
4:53 PM 63.0 °F - 55.0 °F 75% 29.94 in 10.0 mi East 12.7 mph - 0.03 in   Overcast
5:53 PM 64.0 °F - 55.0 °F 73% 29.91 in 10.0 mi ENE 11.5 mph - N/A   Mostly Cloudy
6:53 PM 63.0 °F - 55.0 °F 75% 29.98 in 10.0 mi NW 20.7 mph 41.4 mph 0.00 in Rain Light Rain
7:05 PM 60.1 °F - 55.9 °F 86% 30.10 in 1.8 mi NW 15.0 mph - 0.05 in Rain Heavy Rain
7:11 PM 59.0 °F - 55.9 °F 90% 30.09 in 2.0 mi NW 15.0 mph - 0.07 in Rain , Thunderstorm Rain
7:19 PM 59.0 °F - 57.0 °F 93% 30.08 in 7.0 mi NW 10.4 mph - 0.07 in Rain , Thunderstorm Light Rain
7:45 PM 59.0 °F - 57.0 °F 93% 30.10 in 10.0 mi NNE 9.2 mph - 0.08 in Rain Light Rain
8:53 PM 59.0 °F - 57.0 °F 93% 29.95 in 10.0 mi NE 10.4 mph - 0.00 in   Mostly Cloudy
9:53 PM 59.0 °F - 57.0 °F 93% 29.98 in 10.0 mi NNE 8.1 mph - N/A   Scattered Clouds
10:53 PM 59.0 °F - 57.9 °F 96% 29.99 in 7.0 mi North 6.9 mph - N/A   Overcast
11:00 PM 59.0 °F - 57.9 °F 96% 30.13 in 7.0 mi North 8.1 mph - N/A   Overcast
11:53 PM 59.0 °F - 57.9 °F 96% 29.98 in 8.0 mi NNE 6.9 mph - N/A   Overcast